H1 CPF 2 NER 2021 12 28 9 362 01 glonass133 H2 1403201 9133 40001 2021 12 28 0 0 0 2021 12 31 23 45 0 900 1 1 0 0 0 1 H9 10 0 59576 0.00000 0 5487448.760 -22671378.016 10362939.940 10 0 59576 900.00000 0 5298461.962 -21220672.512 13156180.061 10 0 59576 1800.00000 0 5242234.574 -19433174.505 15694339.309 10 0 59576 2700.00000 0 5360780.859 -17356100.038 17928199.169 10 0 59576 3600.00000 0 5686654.905 -15045932.709 19814427.806 10 0 59576 4500.00000 0 6241383.739 -12566227.830 21316416.391 10 0 59576 5400.00000 0 7034373.258 -9985135.909 22404986.749 10 0 59576 6300.00000 0 8062333.723 -7372747.473 23058957.099 10 0 59576 7200.00000 0 9309249.907 -4798368.696 23265555.175 10 0 59576 8100.00000 0 10746898.503 -2327839.953 23020670.880 10 0 59576 9000.00000 0 12335892.643 -21007.719 22328943.298 10 0 59576 9900.00000 0 14027211.420 2070545.867 21203679.933 10 0 59576 10800.00000 0 15764151.997 3905422.145 19666608.953 10 0 59576 11700.00000 0 17484624.080 5453894.391 17747468.267 10 0 59576 12600.00000 0 19123691.778 6698903.875 15483438.352 10 0 59576 13500.00000 0 20616257.106 7636522.240 12918428.779 10 0 59576 14400.00000 0 21899772.932 8275861.101 10102231.328 10 0 59576 15300.00000 0 22916871.242 8638432.878 7089555.533 10 0 59576 16200.00000 0 23617795.727 8756990.162 3938965.034 10 0 59576 17100.00000 0 23962535.437 8673893.039 711735.442 10 0 59576 18000.00000 0 23922568.527 8439073.996 -2529343.558 10 0 59576 18900.00000 0 23482141.477 8107687.397 -5721197.846 10 0 59576 19800.00000 0 22639028.750 7737544.098 -8801705.352 10 0 59576 20700.00000 0 21404739.955 7386441.058 -11710914.107 10 0 59576 21600.00000 0 19804165.133 7109500.334 -14392217.158 10 0 59576 22500.00000 0 17874672.681 6956631.357 -16793460.528 10 0 59576 23400.00000 0 15664697.766 6970224.999 -18867961.925 10 0 59576 24300.00000 0 13231880.552 7183177.803 -20575420.076 10 0 59576 25200.00000 0 10640832.452 7617330.522 -21882696.968 10 0 59576 26100.00000 0 7960624.132 8282387.244 -22764458.040 10 0 59576 27000.00000 0 5262100.310 9175360.844 -23203658.477 10 0 59576 27900.00000 0 2615133.198 10280568.172 -23191866.845 10 0 59576 28800.00000 0 85928.780 11570175.098 -22729420.567 10 0 59576 29700.00000 0 -2265502.663 13005268.453 -21825410.961 10 0 59576 30600.00000 0 -4387607.554 14537409.845 -20497498.801 10 0 59576 31500.00000 0 -6239188.655 16110606.142 -18771564.476 10 0 59576 32400.00000 0 -7790865.868 17663614.120 -16681199.869 10 0 59576 33300.00000 0 -9026039.077 19132482.812 -14267051.969 10 0 59576 34200.00000 0 -9941314.624 20453227.148 -11576031.044 10 0 59576 35100.00000 0 -10546379.526 21564521.053 -8660398.678 10 0 59576 36000.00000 0 -10863330.453 22410297.276 -5576753.259 10 0 59576 36900.00000 0 -10925487.233 22942145.104 -2384932.601 10 0 59576 37800.00000 0 -10775742.091 23121405.532 853145.125 10 0 59576 38700.00000 0 -10464515.248 22920876.092 4074679.764 10 0 59576 39600.00000 0 -10047403.735 22326053.833 7217203.564 10 0 59576 40500.00000 0 -9582623.087 21335864.249 10219788.214 10 0 59576 41400.00000 0 -9128350.065 19962845.372 13024221.332 10 0 59576 42300.00000 0 -8740078.518 18232778.984 15576129.795 10 0 59576 43200.00000 0 -8468099.799 16183783.818 17826028.603 10 0 59576 44100.00000 0 -8355213.797 13864907.881 19730275.475 10 0 59576 45000.00000 0 -8434766.916 11334277.787 21251913.156 10 0 59576 45900.00000 0 -8729099.627 8656881.136 22361383.749 10 0 59576 46800.00000 0 -9248469.186 5902073.018 23037101.677 10 0 59576 47700.00000 0 -9990493.343 3140909.173 23265874.490 10 0 59576 48600.00000 0 -10940139.265 443415.322 23043163.455 10 0 59576 49500.00000 0 -12070259.306 -2124095.077 22373178.713 10 0 59576 50400.00000 0 -13342652.440 -4501544.201 21268806.654 10 0 59576 51300.00000 0 -14709608.302 -6637350.373 19751370.208 10 0 59576 52200.00000 0 -16115870.450 -8490332.367 17850225.709 10 0 59576 53100.00000 0 -17500937.647 -10031178.551 15602203.142 10 0 59576 54000.00000 0 -18801607.417 -11243419.977 13050899.555 10 0 59576 54900.00000 0 -19954655.516 -12123866.930 10245838.395 10 0 59576 55800.00000 0 -20899538.603 -12682490.821 7241510.472 10 0 59576 56700.00000 0 -21581005.949 -12941756.712 4096314.800 10 0 59576 57600.00000 0 -21951509.325 -12935434.955 871419.897 10 0 59576 58500.00000 0 -21973308.344 -12706942.631 -2370431.824 10 0 59576 59400.00000 0 -21620181.197 -12307285.638 -5566152.615 10 0 59576 60300.00000 0 -20878667.311 -11792689.424 -8653546.047 10 0 59576 61200.00000 0 -19748788.293 -11222019.745 -11572526.501 10 0 59576 62100.00000 0 -18244215.824 -10654103.821 -14266296.711 10 0 59576 63000.00000 0 -16391878.621 -10145066.445 -16682459.531 10 0 59576 63900.00000 0 -14231024.602 -9745794.808 -18774041.498 10 0 59576 64800.00000 0 -11811777.375 -9499640.068 -20500407.971 10 0 59576 65700.00000 0 -9193247.498 -9440453.339 -21828052.002 10 0 59576 66600.00000 0 -6441277.616 -9591039.294 -22731241.835 10 0 59576 67500.00000 0 -3625915.670 -9962092.597 -23192515.026 10 0 59576 68400.00000 0 -818721.414 -10551661.792 -23203010.288 10 0 59576 69300.00000 0 1909981.787 -11345162.895 -22762631.366 10 0 59576 70200.00000 0 4493796.096 -12315941.707 -21880040.543 10 0 59576 71100.00000 0 6872768.317 -13426360.914 -20572482.525 10 0 59576 72000.00000 0 8995635.199 -14629365.928 -18865442.654 10 0 59576 72900.00000 0 10821702.956 -15870463.564 -16792146.424 10 0 59576 73800.00000 0 12322284.299 -17090030.344 -14392910.137 10 0 59576 74700.00000 0 13481634.724 -18225853.473 -11714355.448 10 0 59576 75600.00000 0 14297350.761 -19215797.842 -8808502.945 10 0 59576 76500.00000 0 14780215.314 -20000487.109 -5731762.268 10 0 59576 77400.00000 0 14953498.130 -20525886.293 -2543838.340 10 0 59576 78300.00000 0 14851742.282 -20745677.455 693425.173 10 0 59576 79200.00000 0 14519088.862 -20623328.633 3917242.834 10 0 59576 80100.00000 0 14007211.309 -20133769.049 7065101.614 10 0 59576 81000.00000 0 13372947.001 -19264600.072 10075968.869 10 0 59576 81900.00000 0 12675726.269 -18016790.776 12891470.927 10 0 59576 82800.00000 0 11974907.246 -16404828.469 15457019.626 10 0 59576 83700.00000 0 11327128.751 -14456317.225 17722865.399 10 0 59576 84600.00000 0 10783792.473 -12211040.286 19645057.025 10 0 59576 85500.00000 0 10388780.152 -9719524.514 21186289.916 10 0 59577 0.00000 0 10176501.568 -7041165.711 22316627.044 10 0 59577 900.00000 0 10170355.275 -4241990.045 23014079.524 10 0 59577 1800.00000 0 10381667.077 -1392146.957 23265034.499 10 0 59577 2700.00000 0 10809150.874 1436768.528 23064524.175 10 0 59577 3600.00000 0 11438915.492 4174450.649 22416329.018 10 0 59577 4500.00000 0 12245017.972 6754563.906 21332913.314 10 0 59577 5400.00000 0 13190541.204 9117259.598 19835193.542 10 0 59577 6300.00000 0 14229151.795 11211424.087 17952143.054 10 0 59577 7200.00000 0 15307073.760 12996565.619 15720239.750 10 0 59577 8100.00000 0 16365395.955 14444261.430 13182766.375 10 0 59577 9000.00000 0 17342616.689 15539104.883 10388976.075 10 0 59577 9900.00000 0 18177318.485 16279113.009 7393138.777 10 0 59577 10800.00000 0 18810859.987 16675577.596 4253486.523 10 0 59577 11700.00000 0 19189970.738 16752366.273 1031078.237 10 0 59577 12600.00000 0 19269138.260 16544703.423 -2211393.550 10 0 59577 13500.00000 0 19012685.376 16097482.993 -5410830.110 10 0 59577 14400.00000 0 18396448.610 15463185.263 -8504963.260 10 0 59577 15300.00000 0 17408985.482 14699486.626 -11433576.204 10 0 59577 16200.00000 0 16052258.463 13866664.561 -14139683.649 10 0 59577 17100.00000 0 14341765.728 13024908.659 -16570647.332 10 0 59577 18000.00000 0 12306112.420 12231652.385 -18679204.436 10 0 59577 18900.00000 0 9986039.899 11539039.163 -20424388.547 10 0 59577 19800.00000 0 7432953.315 10991630.303 -21772325.177 10 0 59577 20700.00000 0 4707009.049 10624451.713 -22696886.585 10 0 59577 21600.00000 0 1874841.754 10461461.652 -23180193.735 10 0 59577 22500.00000 0 -992974.324 10514503.671 -23212956.316 10 0 59577 23400.00000 0 -3824624.226 10782788.271 -22794644.975 10 0 59577 24300.00000 0 -6549799.495 11252924.340 -21933493.222 10 0 59577 25200.00000 0 -9102380.204 11899498.373 -20646329.594 10 0 59577 26100.00000 0 -11422941.104 12686176.404 -18958243.880 10 0 59577 27000.00000 0 -13460978.852 13567281.778 -16902094.270 10 0 59577 27900.00000 0 -15176769.003 14489781.998 -14517865.094 10 0 59577 28800.00000 0 -16542776.818 15395600.800 -11851887.761 10 0 59577 29700.00000 0 -17544564.663 16224158.044 -8955939.948 10 0 59577 30600.00000 0 -18181159.726 16915030.493 -5886240.391 10 0 59577 31500.00000 0 -18464868.150 17410621.453 -2702358.779 10 0 59577 32400.00000 0 -18420544.850 17658726.943 533938.227 10 0 59577 33300.00000 0 -18084350.919 17614890.310 3759882.547 10 0 59577 34200.00000 0 -17502051.796 17244446.122 6912918.613 10 0 59577 35100.00000 0 -16726928.566 16524167.179 9931912.279 10 0 59577 36000.00000 0 -15817390.689 15443445.030 12758331.463 10 0 59577 36900.00000 0 -14834390.838 14004953.954 15337375.829 10 0 59577 37800.00000 0 -13838750.553 12224769.821 17619034.038 10 0 59577 38700.00000 0 -12888508.960 10131937.886 19559048.594 10 0 59577 39600.00000 0 -12036405.635 7767506.484 21119770.036 10 0 59577 40500.00000 0 -11327603.003 5183065.589 22270884.565 10 0 59577 41400.00000 0 -10797743.494 2438849.609 22990001.460 10 0 59577 42300.00000 0 -10471422.846 -398518.124 23263089.217 10 0 59577 43200.00000 0 -10361143.515 -3258547.028 23084752.097 10 0 59577 44100.00000 0 -10466792.354 -6069563.889 22458341.573 10 0 59577 45000.00000 0 -10775664.887 -8761450.182 21395900.058 10 0 59577 45900.00000 0 -11263035.827 -11268319.574 19917937.325 10 0 59577 46800.00000 0 -11893252.654 -13531025.198 18053043.016 10 0 59577 47700.00000 0 -12621307.084 -15499392.867 15837341.737 10 0 59577 48600.00000 0 -13394819.053 -17134087.556 13313800.275 10 0 59577 49500.00000 0 -14156350.160 -18408035.369 10531399.407 10 0 59577 50400.00000 0 -14845949.248 -19307341.446 7544185.747 10 0 59577 51300.00000 0 -15403822.536 -19831665.350 4410221.630 10 0 59577 52200.00000 0 -15773014.957 -19994038.193 1190453.389 10 0 59577 53100.00000 0 -15901988.463 -19820129.313 -2052479.519 10 0 59577 54000.00000 0 -15746987.086 -19346993.821 -5255470.733 10 0 59577 54900.00000 0 -15274087.337 -18621354.416 -8356183.779 10 0 59577 55800.00000 0 -14460845.861 -17697490.843 -11294274.182 10 0 59577 56700.00000 0 -13297473.305 -16634827.080 -14012572.101 10 0 59577 57600.00000 0 -11787483.622 -15495319.236 -16458201.503 10 0 59577 58500.00000 0 -9947790.419 -14340755.417 -18583613.334 10 0 59577 59400.00000 0 -7808245.486 -13230082.404 -20347512.171 10 0 59577 60300.00000 0 -5410638.244 -12216872.399 -21715658.305 10 0 59577 61200.00000 0 -2807197.707 -11347036.912 -22661529.809 10 0 59577 62100.00000 0 -58659.290 -10656883.886 -23166832.282 10 0 59577 63000.00000 0 2768023.134 -10171599.380 -23221847.050 10 0 59577 63900.00000 0 5602224.747 -9904216.916 -22825611.797 10 0 59577 64800.00000 0 8372351.272 -9855116.854 -21985930.904 10 0 59577 65700.00000 0 11008582.603 -10012075.795 -20719215.953 10 0 59577 66600.00000 0 13445545.137 -10350862.851 -19050160.015 10 0 59577 67500.00000 0 15624802.626 -10836356.778 -17011252.418 10 0 59577 68400.00000 0 17497063.016 -11424136.096 -14642143.579 10 0 59577 69300.00000 0 19024010.539 -12062474.679 -11988872.340 10 0 59577 70200.00000 0 20179688.050 -12694658.297 -9102970.747 10 0 59577 71100.00000 0 20951373.318 -13261524.231 -6040463.555 10 0 59577 72000.00000 0 21339913.960 -13704116.752 -2860781.833 10 0 59577 72900.00000 0 21359508.360 -13966346.451 374388.361 10 0 59577 73800.00000 0 21036942.937 -13997541.217 3602299.997 10 0 59577 74700.00000 0 20410318.750 -13754781.276 6760358.626 10 0 59577 75600.00000 0 19527321.701 -13204919.719 9787332.079 10 0 59577 76500.00000 0 18443109.532 -12326203.172 12624533.058 10 0 59577 77400.00000 0 17217904.644 -11109423.946 15216951.881 10 0 59577 78300.00000 0 15914393.867 -9558554.614 17514317.840 10 0 59577 79200.00000 0 14595044.154 -7690837.429 19472069.105 10 0 59577 80100.00000 0 13319446.470 -5536323.707 21052212.823 10 0 59577 81000.00000 0 12141798.812 -3136881.027 22224059.366 10 0 59577 81900.00000 0 11108633.305 -544708.047 22964816.957 10 0 59577 82800.00000 0 10256882.191 2179582.794 23260035.475 10 0 59577 83700.00000 0 9612363.353 4969236.664 23103890.983 10 0 59577 84600.00000 0 9188748.618 7753889.082 22499305.335 10 0 59577 85500.00000 0 8987058.130 10462256.196 21457898.098 10 0 59578 0.00000 0 8995702.181 13024871.896 19999771.213 10 0 59578 900.00000 0 9191069.161 15376760.325 18153128.792 10 0 59578 1800.00000 0 9538635.347 17459929.764 15953740.471 10 0 59578 2700.00000 0 9994550.357 19225588.967 13444255.053 10 0 59578 3600.00000 0 10507631.861 20635990.044 10673378.719 10 0 59578 4500.00000 0 11021685.575 21665822.106 7694932.342 10 0 59578 5400.00000 0 11478052.449 22303096.852 4566805.943 10 0 59578 6300.00000 0 11818274.908 22549488.747 1349830.526 10 0 59578 7200.00000 0 11986768.602 22420115.321 -1893410.354 10 0 59578 8100.00000 0 11933385.428 21942766.977 -5099805.536 10 0 59578 9000.00000 0 11615758.081 21156619.046 -8206953.006 10 0 59578 9900.00000 0 11001325.435 20110480.959 -11154383.206 10 0 59578 10800.00000 0 10068951.656 18860657.175 -13884744.102 10 0 59578 11700.00000 0 8810069.258 17468510.984 -16344923.992 10 0 59578 12600.00000 0 7229296.675 15997834.852 -18487089.398 10 0 59578 13500.00000 0 5344503.317 14512138.972 -20269617.442 10 0 59578 14400.00000 0 3186318.567 13071972.812 -21657904.496 10 0 59578 15300.00000 0 797104.751 11732392.718 -22625035.516 10 0 59578 16200.00000 0 -1770563.352 10540681.966 -23152301.587 10 0 59578 17100.00000 0 -4455849.320 9534418.612 -23229556.272 10 0 59578 18000.00000 0 -7191955.048 8739971.502 -22855404.608 10 0 59578 18900.00000 0 -9908674.424 8171486.464 -22037221.844 10 0 59578 19800.00000 0 -12535094.885 7830403.951 -20791002.232 10 0 59578 20700.00000 0 -15002334.928 7705527.024 -19141041.361 10 0 59578 21600.00000 0 -17246204.443 7773635.434 -17119458.575 10 0 59578 22500.00000 0 -19209678.022 8000618.771 -14765568.927 10 0 59578 23400.00000 0 -20845079.136 8343079.908 -12125116.961 10 0 59578 24300.00000 0 -22115885.261 8750340.414 -9249387.164 10 0 59578 25200.00000 0 -22998079.744 9166762.773 -6194208.215 10 0 59578 26100.00000 0 -23480995.026 9534291.069 -3018870.343 10 0 59578 27000.00000 0 -23567613.100 9795102.700 215023.321 10 0 59578 27900.00000 0 -23274311.635 9894259.018 3444749.229 10 0 59578 28800.00000 0 -22630067.282 9782242.952 6607676.592 10 0 59578 29700.00000 0 -21675150.337 9417276.418 9642477.851 10 0 59578 30600.00000 0 -20459365.993 8767319.548 12490313.197 10 0 59578 31500.00000 0 -19039916.276 7811667.210 15095966.315 10 0 59578 32400.00000 0 -17478972.361 6542075.054 17408909.793 10 0 59578 33300.00000 0 -15841058.858 4963366.935 19384279.985 10 0 59578 34200.00000 0 -14190359.262 3093497.221 20983742.948 10 0 59578 35100.00000 0 -12588054.868 963063.991 22176235.235 10 0 59578 36000.00000 0 -11089807.843 -1385708.104 22938565.677 10 0 59578 36900.00000 0 -9743493.106 -3900474.553 23255866.827 10 0 59578 37800.00000 0 -8587273.270 -6520706.333 23121887.446 10 0 59578 38700.00000 0 -7648096.630 -9179975.132 22539120.266 10 0 59578 39600.00000 0 -6940680.750 -11808494.980 21518762.117 10 0 59578 40500.00000 0 -6467024.040 -14335816.028 20080506.540 10 0 59578 41400.00000 0 -6216465.773 -16693559.566 18252171.990 10 0 59578 42300.00000 0 -6166292.219 -18818081.105 16069171.878 10 0 59578 43200.00000 0 -6282863.548 -20652950.977 13573835.659 10 0 59578 44100.00000 0 -6523214.271 -22151149.012 10814593.215 10 0 59578 45000.00000 0 -6837059.777 -23276881.274 7845037.693 10 0 59578 45900.00000 0 -7169124.083 -24006942.453 4722884.551 10 0 59578 46800.00000 0 -7461689.951 -24331566.289 1508846.988 10 0 59578 47700.00000 0 -7657262.770 -24254727.905 -1734550.020 10 0 59578 48600.00000 0 -7701234.355 -23793885.073 -4944193.382 10 0 59578 49500.00000 0 -7544432.629 -22979169.296 -8057618.563 10 0 59578 50400.00000 0 -7145447.797 -21852061.003 -11014234.077 10 0 59578 51300.00000 0 -6472635.112 -20463605.193 -13756508.917 10 0 59578 52200.00000 0 -5505708.078 -18872243.390 -16231098.914 10 0 59578 53100.00000 0 -4236853.570 -17141354.022 -18389889.242 10 0 59578 54000.00000 0 -2671320.693 -15336605.529 -20190932.403 10 0 59578 54900.00000 0 -827457.638 -13523234.124 -21599263.344 10 0 59578 55800.00000 0 1263805.654 -11763360.996 -22587575.972 10 0 59578 56700.00000 0 3560007.915 -10113461.588 -23136748.446 10 0 59578 57600.00000 0 6008696.558 -8622092.734 -23236207.673 10 0 59578 58500.00000 0 8549393.190 -7327972.210 -22884126.677 10 0 59578 59400.00000 0 11115903.028 -6258490.053 -22087451.771 10 0 59578 60300.00000 0 13638872.319 -5428712.614 -20861759.679 10 0 59578 61200.00000 0 16048487.647 -4840919.586 -19230947.930 10 0 59578 62100.00000 0 18277205.261 -4484691.741 -17226764.918 10 0 59578 63000.00000 0 20262397.411 -4337544.085 -14888188.949 10 0 59578 63900.00000 0 21948806.078 -4366076.420 -12260668.456 10 0 59578 64800.00000 0 23290702.646 -4527591.600 -9395238.084 10 0 59578 65700.00000 0 24253664.222 -4772112.332 -6347527.709 10 0 59578 66600.00000 0 24815893.250 -5044710.758 -3176683.593 10 0 59578 67500.00000 0 24969026.140 -5288051.997 55777.507 10 0 59578 68400.00000 0 24718397.868 -5445043.919 3287159.174 10 0 59578 69300.00000 0 24082752.197 -5461481.104 6454797.976 10 0 59578 70200.00000 0 23093410.229 -5288571.184 9497274.599 10 0 59578 71100.00000 0 21792932.571 -4885236.785 12355600.152 10 0 59578 72000.00000 0 20233331.363 -4220095.784 14974354.841 10 0 59578 72900.00000 0 18473907.085 -3273036.002 17302757.329 10 0 59578 73800.00000 0 16578800.444 -2036317.483 19295644.557 10 0 59578 74700.00000 0 14614361.375 -515155.165 20914343.472 10 0 59578 75600.00000 0 12646444.551 1272243.680 22127418.362 10 0 59578 76500.00000 0 10737743.607 3295190.256 22911279.796 10 0 59578 77400.00000 0 8945274.727 5511553.559 23250643.685 10 0 59578 78300.00000 0 7318113.782 7869286.649 23138831.736 10 0 59578 79200.00000 0 5895480.801 10308378.073 22577907.366 10 0 59578 80100.00000 0 4705251.206 12763148.861 21578644.034 10 0 59578 81000.00000 0 3762955.567 15164800.999 20160325.977 10 0 59578 81900.00000 0 3071309.426 17444112.533 18350384.308 10 0 59578 82800.00000 0 2620292.768 19534167.848 16183874.557 10 0 59578 83700.00000 0 2387775.700 21373009.745 13702804.763 10 0 59578 84600.00000 0 2340663.985 22906102.746 10955326.175 10 0 59578 85500.00000 0 2436516.103 24088504.257 7994801.639 10 0 59579 0.00000 0 2625563.310 24886652.194 4878769.572 10 0 59579 900.00000 0 2853047.027 25279693.785 1667821.866 10 0 59579 1800.00000 0 3061773.703 25260298.044 -1575577.840 10 0 59579 2700.00000 0 3194778.376 24834918.647 -4788317.590 10 0 59579 3600.00000 0 3197982.688 24023494.593 -7907873.339 10 0 59579 4500.00000 0 3022733.508 22858601.614 -10873534.525 10 0 59579 5400.00000 0 2628113.244 21384090.150 -13627593.813 10 0 59579 6300.00000 0 1982922.627 19653267.575 -16116476.926 10 0 59579 7200.00000 0 1067250.898 17726701.781 -18291789.749 10 0 59579 8100.00000 0 -126434.079 15669739.063 -20111261.922 10 0 59579 9000.00000 0 -1592722.702 13549841.116 -21539568.418 10 0 59579 9900.00000 0 -3313251.917 11433853.362 -22549013.249 10 0 59579 10800.00000 0 -5257246.019 9385319.158 -23120062.503 10 0 59579 11700.00000 0 -7382587.749 7461952.153 -23241716.967 10 0 59579 12600.00000 0 -9637375.154 5713371.940 -22911717.838 10 0 59579 13500.00000 0 -11961899.457 4179196.713 -22136582.306 10 0 59579 14400.00000 0 -14290961.701 2887571.312 -20931468.978 10 0 59579 15300.00000 0 -16556431.774 1854190.655 -19319876.330 10 0 59579 16200.00000 0 -18689943.543 1081857.658 -17333180.446 10 0 59579 17100.00000 0 -20625614.180 560592.303 -15010021.208 10 0 59579 18000.00000 0 -22302674.705 268285.586 -12395549.002 10 0 59579 18900.00000 0 -23667902.586 171869.221 -9540546.510 10 0 59579 19800.00000 0 -24677755.436 228950.539 -6500442.551 10 0 59579 20700.00000 0 -25300117.186 389842.635 -3334237.063 10 0 59579 21600.00000 0 -25515584.387 599903.320 -103357.985 10 0 59579 22500.00000 0 -25318239.336 802083.584 3129527.913 10 0 59579 23400.00000 0 -24715878.172 939577.642 6301727.170 10 0 59579 24300.00000 0 -23729684.794 958462.416 9351731.389 10 0 59579 25200.00000 0 -22393364.498 810214.863 12220405.312 10 0 59579 26100.00000 0 -20751773.711 454000.793 14852128.339 10 0 59579 27000.00000 0 -18859103.091 -141361.573 17195867.790 10 0 59579 27900.00000 0 -16776689.610 -995846.419 19206163.570 10 0 59579 28800.00000 0 -14570548.628 -2117139.548 20844005.614 10 0 59579 29700.00000 0 -12308728.274 -3500078.305 22077587.691 10 0 59579 30600.00000 0 -10058595.705 -5126636.897 22882923.453 10 0 59579 31500.00000 0 -7884167.540 -6966459.156 23244313.098 10 0 59579 32400.00000 0 -5843594.782 -8977918.139 23154651.789 10 0 59579 33300.00000 0 -3986906.172 -11109660.098 22615573.751 10 0 59579 34200.00000 0 -2354103.321 -13302570.095 21637428.845 10 0 59579 35100.00000 0 -973686.396 -15492078.928 20239091.450 10 0 59579 36000.00000 0 138328.564 -17610716.529 18447604.481 10 0 59579 36900.00000 0 978859.943 -19590806.286 16297664.443 10 0 59579 37800.00000 0 1557659.880 -21367188.409 13830956.540 10 0 59579 38700.00000 0 1896667.090 -22879858.745 11095351.720 10 0 59579 39600.00000 0 2028840.612 -24076412.326 8143980.616 10 0 59579 40500.00000 0 1996523.961 -24914188.768 5034201.910 10 0 59579 41400.00000 0 1849409.249 -25362028.694 1826485.016 10 0 59579 42300.00000 0 1642187.979 -25401566.510 -1416770.784 10 0 59579 43200.00000 0 1431988.855 -25028004.298 -4632457.257 10 0 59579 44100.00000 0 1275712.234 -24250333.538 -7757993.570 10 0 59579 45000.00000 0 1227375.367 -23090994.789 -10732552.910 10 0 59579 45900.00000 0 1335582.263 -21584989.458 -13498254.483 10 0 59579 46800.00000 0 1641226.640 -19778481.017 -16001296.772 10 0 59579 47700.00000 0 2175526.372 -17726944.814 -18193009.153 10 0 59579 48600.00000 0 2958473.644 -15492944.600 -20030800.974 10 0 59579 49500.00000 0 3997767.114 -13143629.493 -21478989.518 10 0 59579 50400.00000 0 5288271.806 -10748056.720 -22509490.813 10 0 59579 51300.00000 0 6812029.979 -8374452.359 -23102360.359 10 0 59579 52200.00000 0 8538822.936 -6087524.444 -23246173.866 10 0 59579 53100.00000 0 10427260.435 -3945940.329 -22938241.329 10 0 59579 54000.00000 0 12426352.322 -2000072.703 -22184651.034 10 0 59579 54900.00000 0 14477496.877 -290107.141 -21000143.336 10 0 59579 55800.00000 0 16516802.902 1155411.248 -19407817.190 10 0 59579 56700.00000 0 18477648.838 2320533.194 -17438675.562 10 0 59579 57600.00000 0 20293372.318 3202324.555 -15131018.755 10 0 59579 58500.00000 0 21899978.106 3810733.886 -12529697.574 10 0 59579 59400.00000 0 23238751.650 4167915.671 -9685240.808 10 0 59579 60300.00000 0 24258669.434 4307039.326 -6652873.889 10 0 59579 61200.00000 0 24918505.643 4270635.442 -3491447.731 10 0 59579 62100.00000 0 25188547.404 4108550.080 -262298.455 10 0 59579 63000.00000 0 25051847.155 3875594.215 2971940.043 10 0 59579 63900.00000 0 24504959.944 3628988.055 6148547.592 10 0 59579 64800.00000 0 23558134.996 3425708.497 9205930.035 10 0 59579 65700.00000 0 22234953.579 3319851.860 12084808.959 10 0 59579 66600.00000 0 20571428.262 3360123.297 14729366.001 10 0 59579 67500.00000 0 18614600.977 3587558.889 17088319.936 10 0 59579 68400.00000 0 16420698.036 4033576.584 19115916.155 10 0 59579 69300.00000 0 14052918.545 4718438.398 20772809.791 10 0 59579 70200.00000 0 11578947.677 5650189.081 22026825.969 10 0 59579 71100.00000 0 9068297.502 6824116.730 22853582.933 10 0 59579 72000.00000 0 6589585.158 8222759.030 23236966.280 10 0 59579 72900.00000 0 4207860.616 9816456.301 23169445.313 10 0 59579 73800.00000 0 1982094.181 11564429.775 22652225.285 10 0 59579 74700.00000 0 -37072.479 13416341.641 21695232.187 10 0 59579 75600.00000 0 -1809219.015 15314273.275 20316929.796 10 0 59579 76500.00000 0 -3305604.484 17195040.473 18543971.611 10 0 59579 77400.00000 0 -4510130.448 18992749.975 16410693.499 10 0 59579 78300.00000 0 -5419769.212 20641491.196 13958455.842 10 0 59579 79200.00000 0 -6044439.604 22078050.785 11234847.010 10 0 59579 80100.00000 0 -6406335.756 23244536.167 8292762.907 10 0 59579 81000.00000 0 -6538737.555 24090797.501 5189380.042 10 0 59579 81900.00000 0 -6484353.378 24576545.530 1985041.922 10 0 59579 82800.00000 0 -6293265.760 24673075.236 -1257919.240 10 0 59579 83700.00000 0 -6020567.694 24364521.731 -4476401.988 10 0 59579 84600.00000 0 -5723790.683 23648594.457 -7607771.747 10 0 59579 85500.00000 0 -5460234.604 22536757.949 -10591088.415 99